Location: Mountain Grove
(34.0887°N, 86.6172°W)
Time: 21:52:55
(UTC+00:00)

Cosmos 1378 Rocket - Pass Details

Date: 14 July 2020
Orbit: 602 x 626 km, 82.5° (Epoch: 08 August)

Event Time Altitude Azimuth Distance (km) Brightness Sun altitude
Rises 08:47:59 0° 352° (N) 2,898 7.6 -20.4°
Reaches altitude 10° 08:50:12 10° 351° (N) 1,992 6.6 -20.1°
Maximum altitude 08:54:37 80° 266° (W) 636 3.4 -19.5°
Enters shadow 08:56:30 34° 182° (S) 1,029 4.3 -19.2°
